Time,TemperatureF,DewpointF,PressureIn,WindDirection,WindDirectionDegrees,WindSpeedMPH,WindSpeedGustMPH,Humidity,HourlyPrecipIn,Conditions,Clouds,dailyrainin,SoftwareType,DateUTC
2013-02-21 00:32:00,41.0,35.0,29.82,NNW,348,0.0,-999.0,79,-99.99,,,-99.99,,2013-02-21 08:32:00,
2013-02-21 00:42:00,41.0,35.0,29.82,NNW,348,0.0,-999.0,79,-99.99,,,-99.99,,2013-02-21 08:42:00,
2013-02-21 00:52:00,41.0,35.0,29.82,NNW,348,0.0,-999.0,79,-99.99,,,-99.99,,2013-02-21 08:52:00,
2013-02-21 01:01:00,41.0,35.0,29.82,NNW,348,0.0,-999.0,79,-99.99,,,-99.99,,2013-02-21 09:01:00,
2013-02-21 03:31:00,40.0,34.0,29.80,North,355,1.0,-999.0,80,-99.99,,,-99.99,,2013-02-21 11:31:00,
2013-02-21 03:41:00,40.0,34.0,29.80,North,355,1.0,-999.0,80,-99.99,,,-99.99,,2013-02-21 11:41:00,
2013-02-21 03:51:00,40.0,34.0,29.80,North,355,1.0,-999.0,80,-99.99,,,-99.99,,2013-02-21 11:51:00,
2013-02-21 04:01:00,40.0,34.0,29.80,North,355,1.0,-999.0,80,-99.99,,,-99.99,,2013-02-21 12:01:00,
2013-02-21 06:32:00,39.0,33.0,29.83,NNW,331,3.0,-999.0,78,-99.99,,,-99.99,,2013-02-21 14:32:00,
2013-02-21 06:42:00,39.0,33.0,29.83,NNW,331,3.0,-999.0,78,-99.99,,,-99.99,,2013-02-21 14:42:00,
2013-02-21 06:52:00,39.0,33.0,29.83,NNW,331,3.0,-999.0,78,-99.99,,,-99.99,,2013-02-21 14:52:00,
2013-02-21 07:01:00,39.0,33.0,29.83,NNW,331,3.0,-999.0,78,-99.99,,,-99.99,,2013-02-21 15:01:00,
2013-02-21 09:32:00,46.0,32.0,29.87,SSW,192,7.0,-999.0,57,-99.99,,,-99.99,,2013-02-21 17:32:00,
2013-02-21 09:42:00,46.0,32.0,29.87,SSW,192,7.0,-999.0,57,-99.99,,,-99.99,,2013-02-21 17:42:00,
2013-02-21 09:52:00,46.0,32.0,29.87,SSW,192,7.0,-999.0,57,-99.99,,,-99.99,,2013-02-21 17:52:00,
2013-02-21 10:01:00,46.0,32.0,29.87,SSW,192,7.0,-999.0,57,-99.99,,,-99.99,,2013-02-21 18:01:00,
2013-02-21 12:32:00,53.0,31.0,29.89,West,279,7.0,-999.0,43,-99.99,,,-99.99,,2013-02-21 20:32:00,
2013-02-21 12:42:00,53.0,31.0,29.89,West,279,7.0,-999.0,43,-99.99,,,-99.99,,2013-02-21 20:42:00,
2013-02-21 12:52:00,53.0,31.0,29.89,West,279,7.0,-999.0,43,-99.99,,,-99.99,,2013-02-21 20:52:00,
2013-02-21 13:02:00,53.0,31.0,29.89,West,279,7.0,-999.0,43,-99.99,,,-99.99,,2013-02-21 21:02:00,
2013-02-21 15:32:00,59.0,28.0,29.86,West,281,5.0,-999.0,30,-99.99,,,-99.99,,2013-02-21 23:32:00,
2013-02-21 15:42:00,59.0,28.0,29.86,West,281,5.0,-999.0,30,-99.99,,,-99.99,,2013-02-21 23:42:00,
2013-02-21 15:52:00,59.0,28.0,29.86,West,281,5.0,-999.0,30,-99.99,,,-99.99,,2013-02-21 23:52:00,
2013-02-21 16:01:00,59.0,28.0,29.86,West,281,5.0,-999.0,30,-99.99,,,-99.99,,2013-02-22 00:01:00,
2013-02-21 18:32:00,53.0,32.0,29.87,NNE,31,1.0,-999.0,45,-99.99,,,-99.99,,2013-02-22 02:32:00,
2013-02-21 18:42:00,53.0,32.0,29.87,NNE,31,1.0,-999.0,45,-99.99,,,-99.99,,2013-02-22 02:42:00,
2013-02-21 18:52:00,53.0,32.0,29.87,NNE,31,1.0,-999.0,45,-99.99,,,-99.99,,2013-02-22 02:52:00,
2013-02-21 19:01:00,53.0,32.0,29.87,NNE,31,1.0,-999.0,45,-99.99,,,-99.99,,2013-02-22 03:01:00,
2013-02-21 21:32:00,46.0,28.0,29.90,North,5,2.0,-999.0,50,-99.99,,,-99.99,,2013-02-22 05:32:00,
2013-02-21 21:42:00,46.0,28.0,29.90,North,5,2.0,-999.0,50,-99.99,,,-99.99,,2013-02-22 05:42:00,
2013-02-21 21:52:00,46.0,28.0,29.90,North,5,2.0,-999.0,50,-99.99,,,-99.99,,2013-02-22 05:52:00,
2013-02-21 22:01:00,46.0,28.0,29.90,North,5,2.0,-999.0,50,-99.99,,,-99.99,,2013-02-22 06:01:00,